Location: Pontbriand
(46.1542°N, 71.2542°W)
Time: 16:20:03
(UTC+00:00)

Envisat - Pass Details

Date: 05 October 2022
Orbit: 763 x 765 km, 98.2° (Epoch: 30 November)

Event Time Altitude Azimuth Distance (km) Brightness Sun altitude
Rises 07:44:56 0° 30° (NNE) 3,243 7.1 -31.5°
Reaches altitude 10° 07:48:18 10° 54° (NE) 2,310 6.4 -31.0°
Maximum altitude 07:51:10 15° 88° (E) 1,975 5.8 -30.6°
Drops below altitude 10° 07:54:02 10° 123° (ESE) 2,300 5.8 -30.2°
Sets 07:57:21 0° 146° (SSE) 3,219 6.3 -29.7°
